DECAYED

COSMOS 2251 DEB, 34473 (Decayed)

Orbit data source: Space-Track

COSMOS 2251 DEB, 34473 was space debris in LEO originally from a launch on Wed, 16 Jun 1993 UTC launched from the Plesetsk Missile And Space Complex (PKMTR). The debris from Iridium 33, an American commercial communications satellite, has been tracked extensively since its accidental collision with the defunct Russian satellite Cosmos 2251 in 2009. This event, occurring at high speed in low Earth orbit (LEO), generated thousands of pieces of space debris, significantly increasing the risk of further collisions. The Iridium 33 debris cloud has impacted space traffic management and orbital debris mitigation strategies, making it a subject of ongoing study in space situational awareness.

Not visible in the next 10 days
Identifier
34473, 1993-036TS
Orbit
Decayed
Country
Flag of CISCIS
Related business
Manufacturer
Unknown
Mission
Decayed spacecraft
Bus & Motor
Unknown
Mass
Unknown
Launch date (UTC)
1993-06-16 (33 years ago)
Launch vehicle
Unknown
Launch site
Plesetsk Missile And Space Complex (PKMTR)
Object type
Payload
Rocket body
Debris
Shape & HBR
Unknown shape, 0.1 m
Radar Cross Section
Small (<0.1 m²)

Expand to show TLE details & history
Last TLE update: 6 months ago

TLE from 6 months ago
0 COSMOS 2251 DEB
1 34473U 93036TS  25170.65351539  .05097146  63430-1  11091-1 0  9996
2 34473  73.9723  29.9854 0017334 229.2484 130.7253 16.04065239862418
Epoch: 2025-06-19T15:41Z
TLE epoch observation values (Epoch: 2025-06-19T15:41:03.729Z)
Latitude
-0.00004°
Longitude
-113.39826°
Altitude
273.505 km
Speed
7.739 km/s
True Right ascension
01h 59m 56s
True Declination
0° 00' 00"
Sunlit
Object was in daylight at epoch
Visualization orbit readout
Latitude
Unknown
Longitude
Unknown
Altitude
Unknown
Speed
Unknown
Apparent Right ascension
Unknown
Apparent Declination
Unknown
Sunlit
N/A
Visualization observer readout
Local Sidereal Time
09:34:40
Azimuth
Unknown
Elevation
Unknown
Doppler factor
Unknown
Orbital elements
Apogee altitude
272.129 km
Perigee altitude
249.114 km
Semi-major axis
6,638.758 km
Eccentricity
0.00173
Inclination
73.9723°
RAAN
29.9854°
Arg. of periapsis
229.2484°
True anomaly
130.87562°
Mean anomaly
130.7253°
Eccentric anomaly
130.80048°
Mean motion
4.01248 °/min
Orbital period
89.72 mins
BSTAR
0.011091
Loading maneuver chart data...
Computing Atmospheric mass density...

Documentation

Showing up to 5 results
|